Date String (YYYY-MM-DD hh:mm:ss) UTC,Instrument flags,absolute air pressure of the measurement (hPa),sample flow rate (lpm),inlet stack bypass flow (lpm),air temperature of the measurement (°C),ambient temperature measured by the external sensor (°C),aerosol sample conditioner tube jacket temperature (°C),OPC LED temperature (°C),internal box temperature (°C),relative humidity of the measurement (%),span deviation,mass concentration of particles derived from Lorenz-Mie calculation of OPC scattering (μg/m³),mass concentration of particles derived from Lorenz-Mie calculation of OPC scattering (μg/m³),mass concentration of particles derived from Lorenz-Mie calculation of OPC scattering (μg/m³)
DateTimeUTC,F1_M11,P_M11,Q1_M11,Q2_M11,T1_M11,T2_M11,T3_M11,T4_M11,T5_M11,U1_M11,ZSPAN_M11,X2_M11,X0_M11,X1_M11
2023-11-21 13:00:00,SystemResetWarning,0841.2,4.99,000.00,018.8,017.7,000.0,027.3,020.0,17.6,0000.0,0001.64,0002.67,0001.49
2023-11-21 13:01:00,SystemResetWarning,0841.2,4.99,000.00,018.7,017.7,000.0,027.3,020.0,17.6,0000.0,0001.66,0002.59,0001.50
2023-11-21 13:02:00,SystemResetWarning,0841.2,5.01,000.00,018.8,017.7,000.0,027.3,020.0,17.8,0000.0,0001.67,0002.68,0001.49
2023-11-21 13:03:00,SystemResetWarning,0841.2,5.01,000.00,018.8,017.7,000.0,027.3,020.0,17.8,0000.0,0001.69,0002.73,0001.51
2023-11-21 13:04:00,SystemResetWarning,0841.2,5.01,000.00,018.8,017.7,000.0,027.3,020.0,17.8,0000.0,0001.70,0002.28,0001.53
2023-11-21 13:05:00,SystemResetWarning,0841.3,5.01,000.00,018.8,017.7,000.0,027.3,020.0,17.8,0000.0,0001.73,0002.40,0001.54
2023-11-21 13:06:00,SystemResetWarning,0841.2,4.99,000.00,018.8,017.6,000.0,027.3,020.0,17.7,0000.0,0001.76,0003.12,0001.56
2023-11-21 13:07:00,SystemResetWarning,0841.2,5.00,000.00,018.7,017.7,000.0,027.3,020.0,17.7,0000.0,0001.79,0004.39,0001.58
2023-11-21 13:08:00,SystemResetWarning,0841.2,5.00,000.00,018.7,017.7,000.0,027.3,020.0,17.7,0000.0,0001.84,0004.50,0001.61
2023-11-21 13:09:00,SystemResetWarning,0841.2,4.99,000.00,018.7,017.7,000.0,027.3,020.0,17.5,0000.0,0001.87,0004.84,0001.62
2023-11-21 13:10:00,SystemResetWarning,0841.2,5.00,000.00,018.7,017.7,000.0,027.3,020.0,17.4,0000.0,0001.92,0004.92,0001.65
2023-11-21 13:11:00,SystemResetWarning,0841.2,5.01,000.00,018.7,017.6,000.0,027.3,020.0,17.3,0000.0,0001.93,0004.94,0001.65
2023-11-21 13:12:00,SystemResetWarning,0841.2,5.01,000.00,018.7,017.6,000.0,027.3,020.0,17.3,0000.0,0001.92,0005.10,0001.65
2023-11-21 13:13:00,SystemResetWarning,0841.2,5.00,000.00,018.7,017.6,000.0,027.3,020.0,17.4,0000.0,0001.92,0005.39,0001.67
2023-11-21 13:14:00,SystemResetWarning,0841.2,5.00,000.00,018.7,017.6,000.0,027.3,020.0,17.5,0000.0,0001.90,0005.33,0001.66
2023-11-21 13:15:00,SystemResetWarning,0841.2,5.00,000.00,018.7,017.6,000.0,027.3,020.0,17.4,0000.0,0001.89,0005.29,0001.65
2023-11-21 13:16:00,SystemResetWarning,0841.2,5.00,000.00,018.7,017.6,000.0,027.3,020.0,17.4,0000.0,0001.90,0005.27,0001.64
2023-11-21 13:17:00,SystemResetWarning,0841.1,5.00,000.00,018.7,017.6,000.0,027.3,020.0,17.3,0000.0,0001.88,0004.51,0001.62
2023-11-21 13:18:00,SystemResetWarning,0841.1,5.00,000.00,018.7,017.6,000.0,027.3,020.0,17.4,0000.0,0001.87,0003.43,0001.60
2023-11-21 13:19:00,SystemResetWarning,0841.1,5.00,000.00,018.7,017.6,000.0,027.3,020.0,17.3,0000.0,0001.85,0003.38,0001.59
2023-11-21 13:20:00,SystemResetWarning,0841.1,5.01,000.00,018.7,017.6,000.0,027.3,020.0,17.4,0000.0,0001.82,0003.02,0001.58
2023-11-21 13:21:00,SystemResetWarning,0841.1,5.01,000.00,018.7,017.6,000.0,027.3,020.0,17.7,0000.0,0001.77,0002.94,0001.55
2023-11-21 13:22:00,SystemResetWarning,0841.1,5.00,000.00,018.7,017.6,000.0,027.2,020.0,17.9,0000.0,0001.72,0002.84,0001.53
2023-11-21 13:23:00,SystemResetWarning,0841.1,5.00,000.00,018.7,017.6,000.0,027.2,020.0,18.0,0000.0,0001.70,0002.82,0001.51
2023-11-21 13:24:00,SystemResetWarning,0841.1,4.99,000.00,018.7,017.6,000.0,027.2,020.0,18.1,0000.0,0001.71,0002.50,0001.51
2023-11-21 13:25:00,SystemResetWarning,0841.1,5.00,000.00,018.7,017.6,000.0,027.2,020.0,18.1,0000.0,0001.73,0002.53,0001.51
2023-11-21 13:26:00,SystemResetWarning,0841.1,4.99,000.00,018.7,017.6,000.0,027.2,020.0,18.1,0000.0,0001.74,0002.58,0001.51
2023-11-21 13:27:00,SystemResetWarning,0841.1,5.00,000.00,018.7,017.6,000.0,027.2,020.0,18.0,0000.0,0001.73,0002.57,0001.53
2023-11-21 13:28:00,SystemResetWarning,0841.1,5.01,000.00,018.7,017.6,000.0,027.2,020.0,17.8,0000.0,0001.79,0002.77,0001.55
2023-11-21 13:29:00,SystemResetWarning,0841.1,5.01,000.00,018.7,017.6,000.0,027.2,020.0,17.7,0000.0,0001.81,0002.75,0001.58
2023-11-21 13:30:00,SystemResetWarning,0841.1,5.00,000.00,018.7,017.6,000.0,027.2,020.0,17.6,0000.0,0001.80,0002.69,0001.60
2023-11-21 13:31:00,SystemResetWarning,0841.1,4.99,000.00,018.7,017.6,000.0,027.2,020.0,17.5,0000.0,0001.81,0002.68,0001.61
2023-11-21 13:32:00,SystemResetWarning,0841.1,5.00,000.00,018.7,017.6,000.0,027.2,020.0,17.6,0000.0,0001.86,0002.74,0001.64
2023-11-21 13:33:00,SystemResetWarning,0841.1,5.01,000.00,018.7,017.6,000.0,027.2,020.0,17.5,0000.0,0001.90,0003.10,0001.65
2023-11-21 13:34:00,SystemResetWarning,0841.1,5.01,000.00,018.7,017.6,000.0,027.2,020.0,17.5,0000.0,0001.91,0002.96,0001.66
2023-11-21 13:35:00,SystemResetWarning,0841.1,5.01,000.00,018.7,017.5,000.0,027.2,020.0,17.5,0000.0,0001.90,0002.91,0001.66
2023-11-21 13:36:00,SystemResetWarning,0841.1,5.00,000.00,018.7,017.5,000.0,027.2,020.0,17.4,0000.0,0001.87,0002.85,0001.65
2023-11-21 13:37:00,SystemResetWarning,0841.1,5.00,000.00,018.7,017.5,000.0,027.2,020.0,17.4,0000.0,0001.85,0002.79,0001.63
2023-11-21 13:38:00,SystemResetWarning,0841.1,5.00,000.00,018.7,017.5,000.0,027.2,020.0,17.4,0000.0,0001.82,0003.06,0001.62
2023-11-21 13:39:00,SystemResetWarning,0841.1,4.99,000.00,018.7,017.5,000.0,027.2,020.0,17.4,0000.0,0001.73,0003.58,0001.59
2023-11-21 13:40:00,SystemResetWarning,0841.1,5.00,000.00,018.7,017.5,000.0,027.2,020.0,17.5,0000.0,0001.68,0003.48,0001.55
2023-11-21 13:41:00,SystemResetWarning,0841.1,5.01,000.00,018.7,017.5,000.0,027.2,020.0,17.5,0000.0,0001.63,0003.41,0001.51
2023-11-21 13:42:00,SystemResetWarning,0841.1,5.00,000.00,018.7,017.5,000.0,027.2,020.0,17.5,0000.0,0001.60,0003.38,0001.48
2023-11-21 13:43:00,SystemResetWarning,0841.1,5.00,000.00,018.7,017.5,000.0,027.2,020.0,17.5,0000.0,0001.56,0003.33,0001.44
2023-11-21 13:44:00,SystemResetWarning,0841.1,5.01,000.00,018.7,017.5,000.0,027.2,020.0,17.5,0000.0,0001.53,0003.07,0001.43
2023-11-21 13:45:00,SystemResetWarning,0841.1,5.00,000.00,018.7,017.5,000.0,027.2,020.0,17.5,0000.0,0001.51,0002.96,0001.41
2023-11-21 13:46:00,SystemResetWarning,0841.1,5.00,000.00,018.7,017.5,000.0,027.2,020.0,17.4,0000.0,0001.49,0002.95,0001.39
2023-11-21 13:47:00,SystemResetWarning,0841.1,5.00,000.00,018.7,017.5,000.0,027.2,020.0,17.5,0000.0,0001.48,0002.97,0001.38
2023-11-21 13:48:00,SystemResetWarning,0841.1,5.00,000.00,018.7,017.5,000.0,027.2,020.0,17.5,0000.0,0001.47,0002.99,0001.37
2023-11-21 13:49:00,SystemResetWarning,0841.1,5.00,000.00,018.7,017.5,000.0,027.2,020.0,17.4,0000.0,0001.48,0003.11,0001.36
2023-11-21 13:50:00,SystemResetWarning,0841.1,5.00,000.00,018.7,017.5,000.0,027.2,020.0,17.3,0000.0,0001.51,0003.39,0001.37
2023-11-21 13:51:00,SystemResetWarning,0841.0,5.00,000.00,018.7,017.5,000.0,027.2,020.0,17.3,0000.0,0001.52,0003.59,0001.36
2023-11-21 13:52:00,SystemResetWarning,0841.0,5.00,000.00,018.7,017.4,000.0,027.2,020.0,17.2,0000.0,0001.57,0003.68,0001.37
2023-11-21 13:53:00,SystemResetWarning,0841.0,4.99,000.00,018.7,017.4,000.0,027.2,020.0,17.3,0000.0,0001.57,0003.72,0001.36
2023-11-21 13:54:00,SystemResetWarning,0841.0,4.99,000.00,018.7,017.4,000.0,027.2,020.0,17.3,0000.0,0001.58,0003.82,0001.36
2023-11-21 13:55:00,SystemResetWarning,0841.0,5.01,000.00,018.7,017.4,000.0,027.2,020.0,17.1,0000.0,0001.54,0003.78,0001.34
2023-11-21 13:56:00,SystemResetWarning,0841.0,5.01,000.00,018.7,017.4,000.0,027.2,020.0,17.1,0000.0,0001.53,0003.85,0001.32
2023-11-21 13:57:00,SystemResetWarning,0841.1,5.00,000.00,018.7,017.4,000.0,027.2,020.0,17.1,0000.0,0001.52,0003.81,0001.32
2023-11-21 13:58:00,SystemResetWarning,0841.1,5.00,000.00,018.7,017.4,000.0,027.2,020.0,17.0,0000.0,0001.54,0003.80,0001.32
2023-11-21 13:59:00,SystemResetWarning,0841.1,4.99,000.00,018.7,017.4,000.0,027.2,020.0,17.1,0000.0,0001.57,0004.07,0001.33
